Weather History for PAPH - October, 2011

Change the Weather History Date:

Sunday, October 23, 2011

  Actual Average Record
Temperature  
Mean Temperature 40 °F -  
Max Temperature 46 °F 38 °F 48 °F (2002)
Min Temperature 33 °F 28 °F 15 °F (2012)
Degree Days  
Heating Degree Days 26    
Moisture  
Dew Point 34 °F    
Average Humidity 82    
Maximum Humidity 93    
Minimum Humidity 70    
Precipitation  
Precipitation 0.00 in - - ()
Sea Level Pressure  
Sea Level Pressure 29.62 in    
Wind  
Wind Speed 12 mph (South)    
Max Wind Speed 23 mph    
Max Gust Speed 28 mph    
Visibility 10 miles    
Events      
Averages and records for this station are not official NWS values.
T = Trace of Precipitation, MM = Missing Value Source: NWS Daily Summary

Daily Weather History Graph

Daily Weather History Graph

Search for Another Location

Airport or City:

Trip Planner

Search our weather history database for the weather conditions in past years. The results will help you decide how hot, cold, wet, or windy it might be!

Date:

Astronomy

Oct. 23, 2011 Rise Set
Actual Time 9:24 AM AKDT 7:11 PM AKDT
Civil Twilight 8:45 AM AKDT 7:51 PM AKDT
Nautical Twilight 8:00 AM AKDT 8:35 PM AKDT
Astronomical Twilight 7:16 AM AKDT 9:19 PM AKDT
Moon 5:09 AM AKDT (10/23) 5:37 PM AKDT (10/23)
Length of Visible Light 11h 05m
Length of Day
9h 46m
Waning Crescent, 13% of the Moon is Illuminated
Oct 23
Waning Crescent
Oct 26
New
Nov 2
First Quarter
Nov 10
Full
Nov 18
Last Quarter

Hourly Weather History & Observations

Time (AKDT) Temp. Windchill Dew Point Humidity Pressure Visibility Wind Dir Wind Speed Gust Speed Precip Events Conditions
12:16 AM 41.0 °F 34.7 °F 33.8 °F 76% 29.71 in 10.0 mi West 10.4 mph - N/A   Overcast
12:36 AM 41.0 °F 33.5 °F 33.8 °F 76% 29.71 in 10.0 mi WSW 13.8 mph - N/A   Overcast
12:56 AM 41.0 °F 34.3 °F 33.8 °F 76% 29.71 in 10.0 mi WSW 11.5 mph - N/A   Overcast
1:16 AM 41.0 °F 34.7 °F 33.8 °F 76% 29.71 in 10.0 mi WSW 10.4 mph - N/A   Overcast
1:36 AM 39.2 °F 32.5 °F 35.6 °F 87% 29.72 in 10.0 mi WSW 10.4 mph - N/A   Overcast
1:56 AM 39.2 °F 32.5 °F 35.6 °F 87% 29.72 in 10.0 mi SW 10.4 mph - N/A   Overcast
2:16 AM 39.2 °F 31.2 °F 35.6 °F 87% 29.72 in 8.0 mi WSW 13.8 mph 18.4 mph N/A   Overcast
2:36 AM 39.2 °F 32.0 °F 35.6 °F 87% 29.72 in 10.0 mi SSW 11.5 mph - N/A   Overcast
2:56 AM 39.2 °F 32.5 °F 35.6 °F 87% 29.72 in 10.0 mi West 10.4 mph 16.1 mph N/A   Overcast
3:16 AM 39.2 °F 33.0 °F 33.8 °F 81% 29.72 in 10.0 mi WSW 9.2 mph - N/A   Overcast
3:36 AM 37.4 °F 28.9 °F 33.8 °F 87% 29.72 in 10.0 mi SW 13.8 mph - N/A   Overcast
3:56 AM 37.4 °F 30.8 °F 35.6 °F 93% 29.72 in 10.0 mi SSW 9.2 mph - N/A   Overcast
4:16 AM 37.4 °F 28.9 °F 33.8 °F 87% 29.72 in 10.0 mi SW 13.8 mph - N/A   Mostly Cloudy
4:36 AM 37.4 °F 30.8 °F 33.8 °F 87% 29.72 in 10.0 mi SSE 9.2 mph - N/A   Overcast
4:56 AM 35.6 °F 28.6 °F 32.0 °F 87% 29.72 in 10.0 mi South 9.2 mph - N/A   Partly Cloudy
5:16 AM 33.8 °F 26.4 °F 30.2 °F 87% 29.71 in 10.0 mi SSE 9.2 mph - N/A   Clear
5:36 AM 33.8 °F 26.4 °F 30.2 °F 87% 29.71 in 10.0 mi South 9.2 mph - N/A   Clear
5:56 AM 33.8 °F 27.0 °F 30.2 °F 87% 29.71 in 10.0 mi South 8.1 mph - N/A   Clear
6:16 AM 33.8 °F 27.0 °F 30.2 °F 87% 29.70 in 10.0 mi SSE 8.1 mph - N/A   Clear
6:36 AM 33.8 °F 27.0 °F 30.2 °F 87% 29.70 in 10.0 mi SSE 8.1 mph - N/A   Clear
6:56 AM 33.8 °F 27.7 °F 30.2 °F 87% 29.70 in 10.0 mi South 6.9 mph - N/A   Clear
7:16 AM 33.8 °F 26.4 °F 30.2 °F 87% 29.69 in 10.0 mi SSE 9.2 mph - N/A   Clear
7:36 AM 33.8 °F 27.0 °F 30.2 °F 87% 29.69 in 10.0 mi SSE 8.1 mph - N/A   Clear
7:56 AM 35.6 °F 29.9 °F 30.2 °F 81% 29.67 in 10.0 mi SSE 6.9 mph - N/A   Scattered Clouds
8:16 AM 35.6 °F 29.2 °F 30.2 °F 81% 29.66 in 10.0 mi SE 8.1 mph - N/A   Overcast
8:36 AM 35.6 °F 30.7 °F 28.4 °F 75% 29.65 in 10.0 mi SE 5.8 mph - N/A   Overcast
8:56 AM 35.6 °F 29.9 °F 28.4 °F 75% 29.65 in 10.0 mi SE 6.9 mph - N/A   Overcast
9:16 AM 35.6 °F 29.9 °F 30.2 °F 81% 29.64 in 10.0 mi SSE 6.9 mph - N/A   Mostly Cloudy
9:36 AM 35.6 °F 28.6 °F 28.4 °F 75% 29.63 in 10.0 mi SSE 9.2 mph - N/A   Mostly Cloudy
9:56 AM 37.4 °F 29.8 °F 30.2 °F 75% 29.62 in 10.0 mi SE 11.5 mph - N/A   Mostly Cloudy
10:16 AM 37.4 °F 30.3 °F 30.2 °F 75% 29.61 in 10.0 mi SE 10.4 mph - N/A   Scattered Clouds
10:36 AM 37.4 °F 28.5 °F 32.0 °F 81% 29.60 in 10.0 mi SE 15.0 mph - N/A   Mostly Cloudy
10:56 AM 39.2 °F 30.5 °F 32.0 °F 75% 29.59 in 10.0 mi SE 16.1 mph 19.6 mph N/A   Overcast
11:16 AM 39.2 °F 30.5 °F 33.8 °F 81% 29.58 in 10.0 mi SE 16.1 mph - N/A   Mostly Cloudy
11:36 AM 42.8 °F 35.4 °F 33.8 °F 70% 29.57 in 10.0 mi SSE 15.0 mph 24.2 mph N/A   Mostly Cloudy
11:56 AM 42.8 °F 34.3 °F 33.8 °F 70% 29.56 in 10.0 mi SSE 19.6 mph 24.2 mph N/A   Mostly Cloudy
12:16 PM 42.8 °F 34.3 °F 33.8 °F 70% 29.55 in 10.0 mi SSE 19.6 mph 25.3 mph N/A   Overcast
12:36 PM 42.8 °F 34.3 °F 35.6 °F 76% 29.54 in 10.0 mi SSE 19.6 mph 25.3 mph N/A   Overcast
12:56 PM 42.8 °F 34.5 °F 35.6 °F 76% 29.54 in 10.0 mi SSE 18.4 mph 23.0 mph N/A   Overcast
1:16 PM 44.6 °F 36.4 °F 37.4 °F 76% 29.52 in 10.0 mi SSE 20.7 mph 26.5 mph N/A   Mostly Cloudy
1:36 PM 44.6 °F 36.4 °F 37.4 °F 76% 29.51 in 10.0 mi SSE 20.7 mph 25.3 mph N/A   Mostly Cloudy
1:56 PM 44.6 °F 36.6 °F 39.2 °F 81% 29.50 in 10.0 mi SSE 19.6 mph - N/A   Mostly Cloudy
2:16 PM 46.4 °F 39.2 °F 37.4 °F 71% 29.50 in 10.0 mi SSE 18.4 mph 21.9 mph N/A   Mostly Cloudy
2:36 PM 46.4 °F 38.3 °F 39.2 °F 76% 29.51 in 10.0 mi South 23.0 mph 27.6 mph N/A   Mostly Cloudy
2:56 PM 42.8 °F 34.8 °F 37.4 °F 81% 29.53 in 9.0 mi SW 17.3 mph - N/A   Overcast
3:16 PM 42.8 °F 34.3 °F 39.2 °F 87% 29.53 in 9.0 mi SW 19.6 mph 23.0 mph N/A   Overcast
3:56 PM 42.8 °F 34.8 °F 39.2 °F 87% 29.53 in 6.0 mi SSW 17.3 mph - N/A   Mostly Cloudy
4:16 PM 42.8 °F 34.8 °F 37.4 °F 81% 29.54 in 6.0 mi SSW 17.3 mph - N/A   Overcast
4:36 PM 41.0 °F 32.5 °F 37.4 °F 87% 29.54 in 7.0 mi SW 17.3 mph 24.2 mph N/A   Overcast
4:56 PM 41.0 °F 34.3 °F 35.6 °F 81% 29.54 in 9.0 mi SW 11.5 mph - N/A   Overcast
5:16 PM 41.0 °F 33.5 °F 37.4 °F 87% 29.55 in 8.0 mi SSW 13.8 mph - N/A   Overcast
5:36 PM 42.8 °F 36.2 °F 37.4 °F 81% 29.55 in 10.0 mi SW 12.7 mph - N/A   Mostly Cloudy
6:16 PM 39.2 °F 30.5 °F 35.6 °F 87% 29.58 in 10.0 mi West 16.1 mph 20.7 mph N/A   Overcast
6:36 PM 39.2 °F 30.8 °F 35.6 °F 87% 29.58 in 10.0 mi WSW 15.0 mph 24.2 mph N/A   Mostly Cloudy
6:56 PM 39.2 °F 31.2 °F 35.6 °F 87% 29.57 in 10.0 mi SW 13.8 mph - N/A   Mostly Cloudy
7:16 PM 39.2 °F 31.2 °F 35.6 °F 87% 29.57 in 10.0 mi SSW 13.8 mph - N/A   Overcast
7:36 PM 37.4 °F 29.8 °F 35.6 °F 93% 29.57 in 10.0 mi SSE 11.5 mph - N/A   Overcast
7:56 PM 37.4 °F 29.8 °F 33.8 °F 87% 29.57 in 10.0 mi SSE 11.5 mph - N/A   Overcast
8:16 PM 37.4 °F 30.8 °F 33.8 °F 87% 29.57 in 10.0 mi South 9.2 mph - N/A   Overcast
8:36 PM 35.6 °F 28.6 °F 33.8 °F 93% 29.57 in 10.0 mi SSE 9.2 mph - N/A   Mostly Cloudy
9:16 PM 35.6 °F 28.0 °F 32.0 °F 87% 29.56 in 10.0 mi SSE 10.4 mph - N/A   Clear
9:36 PM 35.6 °F 29.2 °F 32.0 °F 87% 29.56 in 10.0 mi SSE 8.1 mph - N/A   Clear
9:56 PM 35.6 °F 29.2 °F 30.2 °F 81% 29.56 in 10.0 mi SSE 8.1 mph - N/A   Clear
10:16 PM 35.6 °F 29.2 °F 30.2 °F 81% 29.55 in 10.0 mi SSE 8.1 mph - N/A   Clear
10:36 PM 35.6 °F 29.2 °F 30.2 °F 81% 29.55 in 10.0 mi SSE 8.1 mph - N/A   Clear
10:56 PM 35.6 °F 29.9 °F 30.2 °F 81% 29.54 in 10.0 mi SE 6.9 mph - N/A   Clear
11:16 PM 35.6 °F 30.7 °F 30.2 °F 81% 29.53 in 10.0 mi SE 5.8 mph - N/A   Scattered Clouds
11:36 PM 35.6 °F 30.7 °F 30.2 °F 81% 29.52 in 10.0 mi East 5.8 mph - N/A   Scattered Clouds
11:56 PM 35.6 °F 29.9 °F 30.2 °F 81% 29.51 in 10.0 mi East 6.9 mph - N/A   Mostly Cloudy